Wind_Speed
16 20 18 20 22 15 11 10 10 10 16 21 23 24 21 18 16 14 14 12 11 9 9 9 8 7 8 10 11 13 17 20 24 27 29 29 28 27 28 30 32 35 37 36 36
17 14 20 14 12 12 8 11 7 7 11 16 20 22 22 19 16 13 12 12 12 13 13 12 12 13 14 15 16 18 20 22 22 22 22 21 22 25 29 30 31 29 29 33 39
37 12 10 14 9 5 9 9 7 8 8 12 15 18 21 20 17 16 14 13 13 13 13 13 13 13 13 13 14 14 14 15 15 17 19 20 24 26 27 25 22 23 32 40 47
46 35 17 2 5 9 6 9 8 8 9 9 11 14 18 19 18 18 17 15 15 15 15 16 15 13 11 10 9 9 10 13 15 17 19 22 24 24 21 17 20 30 37 42 48
54 48 41 19 7 10 13 12 10 6 10 12 8 10 13 15 18 18 19 17 17 17 18 17 17 13 12 10 9 10 13 16 17 17 19 21 22 19 15 18 26 32 38 46 53
52 53 48 39 28 12 18 18 17 16 13 11 12 10 11 11 12 15 18 20 19 18 18 17 17 14 14 12 11 12 14 17 17 19 21 20 18 13 16 21 29 32 39 48 58
49 51 49 51 42 35 23 16 23 22 20 12 13 15 13 12 11 12 14 18 21 21 19 18 17 15 14 14 11 12 14 17 19 20 21 20 14 14 18 24 29 34 43 52 65
44 48 47 53 49 47 40 27 19 23 25 21 15 15 15 18 11 13 12 16 18 20 22 19 19 18 17 14 12 14 16 19 20 21 22 19 13 15 21 25 32 37 46 54 66
49 48 48 51 53 50 47 40 32 22 19 27 25 18 18 18 16 14 14 12 15 19 20 22 20 20 19 13 14 15 17 19 21 22 22 17 14 17 21 27 32 39 48 55 64
46 46 51 52 51 52 48 44 42 37 24 18 27 27 21 20 20 19 14 15 12 16 18 21 22 19 19 16 16 17 18 20 22 22 22 17 15 18 22 26 32 40 48 55 61
43 48 48 47 51 49 50 48 45 41 35 26 17 27 32 25 21 20 19 17 14 15 17 19 23 22 19 18 17 19 20 21 22 22 22 19 16 19 23 26 33 41 46 53 55
41 46 49 51 53 52 50 47 46 44 40 34 28 18 30 28 25 22 22 21 19 17 17 18 21 22 21 20 19 20 21 23 23 24 23 21 18 20 23 27 34 40 44 50 55
37 41 44 47 50 50 59 53 50 47 43 38 36 29 18 30 26 26 25 23 22 20 20 18 17 22 22 21 20 21 21 23 23 24 23 22 21 20 24 29 34 40 43 48 54
34 39 41 44 45 52 55 58 52 52 50 42 36 34 26 20 28 29 28 27 23 24 23 22 19 17 21 22 21 22 22 22 24 25 24 23 23 21 25 29 34 38 42 46 52
33 37 41 44 46 49 52 56 59 52 51 50 42 35 31 26 20 31 31 30 26 25 24 23 23 19 20 21 22 21 23 23 24 25 25 25 25 22 24 28 33 37 42 46 51
34 37 41 42 44 47 49 51 55 60 56 46 46 42 34 30 25 28 34 32 32 28 26 24 26 25 23 22 22 22 22 23 24 25 26 26 26 23 23 27 32 36 41 45 48
37 41 41 41 44 47 50 54 55 57 60 58 47 44 42 34 28 23 32 36 35 33 31 27 25 26 25 24 23 24 24 23 23 24 25 25 25 23 23 26 29 34 39 43 46
42 44 45 43 46 47 49 53 56 60 59 61 59 53 45 40 34 27 23 33 39 37 36 30 28 26 28 26 27 25 25 25 23 23 24 25 25 25 22 23 27 31 36 41 44
44 45 46 47 48 50 51 53 56 57 58 62 63 63 65 48 39 34 27 24 34 40 40 36 33 29 27 28 27 29 27 26 25 23 24 23 24 26 24 22 24 29 32 35 39
46 50 49 50 52 52 54 55 56 57 59 64 65 64 66 66 48 37 33 28 26 35 43 40 37 35 29 28 29 27 28 28 26 25 24 24 23 25 27 24 24 25 27 31 35
51 52 51 54 53 54 55 56 56 59 63 65 67 67 66 67 61 47 37 31 27 27 36 45 41 39 36 31 28 30 26 30 29 25 23 24 25 24 26 27 23 23 25 27 31
56 56 55 54 55 57 57 57 61 63 65 68 63 65 67 67 67 61 45 35 30 28 27 36 45 44 40 35 33 31 30 28 29 27 24 24 25 26 26 28 27 22 23 24 28
59 57 58 58 56 55 59 61 63 63 66 67 70 70 70 70 68 71 51 40 34 27 28 30 41 46 45 40 37 33 33 31 28 30 26 24 24 24 25 26 27 25 24 23 25
60 60 61 62 59 57 58 62 67 67 68 69 71 74 74 76 74 72 53 44 36 32 29 29 35 45 49 46 39 38 34 35 32 29 29 27 25 23 23 25 25 24 24 24 22
62 63 63 62 64 62 61 64 69 70 70 72 73 77 76 76 78 73 54 45 41 35 32 31 34 38 48 51 44 39 39 37 36 34 29 27 29 22 22 23 23 23 22 23 24
67 62 64 64 65 68 66 71 71 72 71 72 74 78 73 73 79 73 57 47 43 39 35 33 35 36 45 50 51 41 41 41 40 38 33 29 29 26 21 21 22 21 20 20 22
69 69 70 70 71 71 73 73 74 78 75 76 78 81 81 82 80 73 62 52 44 43 38 35 35 38 40 49 53 47 49 43 42 42 36 33 31 27 24 21 21 20 19 19 19
Wind_Direction
280 276 257 263 273 287 306 316 326 6 29 25 27 27 22 24 30 31 24 23 20 10 7 354 338 325 313 309 300 295 287 285 286 287 289 292 297 301 307 311 311 308 306 305 302
353 269 260 250 268 274 317 307 316 0 26 30 26 30 29 20 16 16 12 6 359 351 345 332 318 308 302 299 293 288 286 286 289 292 298 304 312 320 319 317 312 308 308 314 315
26 7 228 226 247 303 292 317 307 321 7 24 33 28 30 25 14 8 7 1 358 353 344 335 329 316 312 306 298 292 294 297 299 307 314 321 323 321 318 313 311 320 331 332 328
37 41 56 325 292 262 326 301 354 300 330 353 11 25 16 23 24 11 4 0 0 358 356 359 355 347 344 339 326 321 319 319 317 324 326 325 327 322 320 320 334 346 345 338 328
38 38 39 26 291 270 277 285 304 335 313 310 334 3 5 14 23 21 11 360 2 2 0 2 356 359 359 346 339 335 333 324 323 327 333 333 331 329 327 343 347 349 342 330 323
38 41 38 32 25 328 272 268 272 287 311 298 304 331 339 353 12 14 15 12 5 359 358 359 356 359 353 340 335 337 335 330 331 337 339 339 337 336 350 352 355 349 337 332 334
38 35 34 34 28 26 12 293 272 270 282 296 295 300 315 318 337 353 10 7 7 4 357 358 356 350 342 338 334 338 340 340 348 346 346 345 346 356 360 356 358 348 342 344 348
33 35 32 31 30 29 26 15 347 281 273 278 290 290 295 303 311 329 345 357 3 6 5 354 355 351 346 341 335 340 342 346 348 350 350 348 350 2 1 360 355 351 349 354 355
31 31 28 26 25 24 26 23 16 358 296 269 274 283 281 289 293 306 312 341 356 0 1 3 354 353 350 341 334 341 343 349 346 349 352 351 350 4 1 360 355 353 357 1 5
23 26 23 24 22 19 18 21 18 15 358 314 273 272 275 276 283 285 292 312 337 347 354 357 359 351 348 342 334 339 340 347 348 351 353 352 351 3 2 1 358 357 0 5 6
21 24 23 19 20 18 15 13 17 17 11 357 318 273 270 272 274 280 283 291 305 325 336 346 353 352 343 341 336 338 338 343 350 351 354 350 353 358 360 357 359 359 1 6 10
17 18 18 20 20 20 16 10 9 12 10 6 356 319 262 262 268 271 274 285 292 305 321 336 350 346 342 339 337 337 336 337 346 350 354 348 349 350 352 355 359 359 0 7 9
10 10 13 16 16 14 15 15 8 4 5 6 3 351 303 257 263 265 267 274 282 290 304 318 337 341 340 336 334 335 336 335 343 349 352 349 342 340 347 353 356 357 1 7 10
358 2 3 7 12 10 9 13 11 9 0 358 3 359 347 290 252 268 262 269 277 284 293 301 315 330 335 334 333 333 336 336 340 345 349 352 344 339 343 349 351 354 0 7 11
350 349 351 354 359 4 5 5 9 9 4 359 353 358 352 340 276 258 266 263 270 277 289 294 302 313 322 326 333 330 333 334 338 341 347 351 348 344 340 346 348 353 2 7 13
341 342 343 348 350 354 356 0 1 7 6 0 356 348 353 344 334 259 265 265 264 270 277 292 299 303 309 316 323 327 329 332 334 339 344 349 350 343 339 344 347 355 1 5 13
331 332 334 339 344 348 351 355 357 360 3 3 353 354 346 346 340 329 260 265 265 263 268 274 292 300 299 306 313 318 324 328 332 337 341 345 349 346 340 342 347 354 0 3 8
322 326 329 333 337 340 344 348 349 350 350 357 1 352 348 342 338 333 320 266 265 267 264 268 277 292 296 297 305 309 314 322 326 330 335 340 346 348 339 339 343 351 357 1 7
316 320 324 327 330 332 337 340 344 348 349 350 352 353 357 340 336 330 325 304 271 263 263 263 269 278 288 296 298 304 306 311 318 322 328 337 342 347 343 333 336 344 352 360 2
312 315 317 320 323 328 332 336 339 342 342 343 345 347 349 353 333 325 321 320 298 274 260 261 260 269 276 285 295 295 301 302 307 316 323 327 335 342 343 338 329 337 347 353 359
305 309 313 315 319 321 327 331 334 335 335 338 339 340 342 346 349 326 317 313 311 293 270 258 259 259 269 274 284 289 292 297 298 306 311 318 328 336 341 342 335 330 339 346 352
303 306 306 310 314 318 322 327 327 332 333 333 336 336 338 341 342 340 318 310 305 307 288 268 257 259 260 267 272 280 282 285 293 296 302 310 320 329 338 341 341 335 333 343 349
299 300 301 308 312 316 318 318 319 324 328 332 331 331 332 335 338 338 322 308 302 296 300 282 261 255 256 259 264 273 276 280 284 292 295 298 309 319 330 336 340 346 338 338 345
296 298 299 299 306 309 312 313 315 316 321 323 324 325 328 329 331 336 328 307 298 293 288 286 269 257 252 255 260 262 270 274 276 280 287 293 295 308 320 329 336 345 346 343 353
294 296 297 301 300 304 308 307 311 315 318 318 320 323 326 327 330 335 326 307 299 290 284 283 274 260 253 249 253 259 261 266 269 275 275 284 286 295 307 319 330 336 344 347 355
289 289 292 297 299 300 302 303 309 310 313 317 318 320 325 327 331 331 325 310 297 291 282 276 276 266 254 247 248 249 258 261 266 270 267 275 280 283 294 306 320 326 335 344 347
288 290 290 292 294 298 301 302 304 308 310 311 314 316 317 323 325 329 325 313 295 291 280 275 269 272 260 249 243 245 252 254 261 265 270 267 274 276 282 291 306 314 323 334 339
Height
10866 10866 10868 10869 10871 10873 10872 10871 10870 10869 10866 10865 10862 10859 10857 10855 10853 10852 10852 10851 10850 10849 10848 10848 10847 10846 10845 10844 10844 10843 10842 10840 10838 10836 10833 10831 10829 10827 10824 10820 10815 10809 10803 10796 10789
10862 10859 10862 10866 10869 10871 10871 10870 10869 10868 10866 10865 10863 10860 10858 10856 10855 10853 10852 10851 10850 10849 10848 10846 10845 10844 10843 10842 10840 10839 10837 10836 10833 10831 10829 10827 10825 10822 10818 10813 10807 10802 10797 10789 10780
10859 10852 10857 10864 10867 10870 10870 10870 10869 10868 10866 10865 10863 10862 10860 10857 10856 10854 10853 10851 10849 10848 10847 10845 10843 10841 10840 10838 10836 10835 10834 10832 10829 10827 10825 10823 10821 10817 10812 10807 10803 10798 10789 10781 10771
10864 10858 10860 10865 10868 10869 10869 10870 10869 10868 10866 10865 10864 10862 10861 10859 10856 10855 10853 10851 10849 10848 10846 10844 10841 10839 10837 10835 10834 10832 10831 10829 10827 10825 10823 10820 10816 10812 10807 10802 10798 10790 10782 10774 10765
10870 10867 10867 10868 10867 10867 10867 10867 10867 10866 10865 10864 10863 10862 10861 10860 10857 10855 10853 10851 10850 10848 10845 10843 10840 10838 10836 10834 10832 10830 10828 10826 10824 10823 10820 10816 10812 10807 10803 10799 10792 10785 10778 10768 10755
10877 10874 10872 10870 10867 10865 10865 10864 10864 10863 10864 10863 10862 10861 10861 10860 10857 10855 10853 10851 10850 10847 10845 10842 10840 10837 10835 10833 10831 10829 10826 10823 10822 10820 10817 10813 10808 10804 10800 10795 10788 10781 10773 10761 10745
10882 10879 10875 10872 10868 10865 10862 10861 10861 10860 10860 10861 10860 10860 10859 10858 10857 10855 10853 10851 10849 10846 10844 10841 10839 10837 10834 10831 10829 10827 10824 10821 10819 10816 10813 10808 10804 10800 10796 10791 10784 10776 10767 10753 10736
10884 10881 10878 10875 10870 10865 10862 10859 10857 10856 10856 10857 10857 10856 10857 10855 10854 10853 10852 10850 10848 10846 10843 10840 10838 10835 10832 10829 10827 10824 10822 10819 10816 10814 10810 10805 10801 10797 10792 10786 10780 10772 10762 10749 10731
10887 10884 10880 10876 10872 10868 10863 10859 10856 10852 10852 10852 10852 10853 10853 10853 10851 10851 10850 10848 10846 10845 10842 10839 10837 10834 10831 10828 10825 10823 10820 10817 10814 10811 10806 10801 10797 10793 10788 10783 10776 10769 10758 10745 10727
10888 10884 10880 10877 10873 10869 10865 10861 10856 10851 10849 10847 10848 10849 10849 10849 10849 10848 10847 10846 10845 10843 10841 10839 10835 10832 10829 10826 10824 10821 10817 10815 10812 10808 10803 10799 10795 10791 10785 10780 10774 10765 10755 10742 10727
10890 10886 10881 10878 10874 10870 10865 10860 10857 10852 10848 10845 10843 10842 10843 10845 10845 10844 10843 10843 10842 10840 10839 10837 10834 10831 10828 10824 10821 10819 10815 10812 10810 10806 10801 10795 10792 10787 10783 10777 10771 10763 10754 10742 10728
10890 10887 10883 10879 10875 10872 10867 10862 10857 10852 10848 10843 10839 10836 10836 10838 10840 10840 10840 10840 10839 10838 10836 10834 10832 10829 10825 10822 10818 10816 10813 10809 10806 10803 10798 10793 10789 10784 10780 10774 10768 10761 10752 10741 10727
10890 10887 10883 10880 10875 10871 10867 10862 10857 10852 10847 10842 10837 10833 10830 10832 10834 10835 10835 10835 10835 10835 10834 10831 10829 10827 10823 10819 10816 10812 10810 10806 10803 10800 10795 10790 10786 10782 10777 10771 10765 10759 10750 10740 10727
10890 10886 10882 10878 10876 10871 10867 10861 10857 10852 10846 10842 10836 10831 10828 10826 10828 10829 10830 10831 10831 10830 10829 10828 10826 10824 10821 10817 10813 10809 10807 10804 10800 10797 10793 10788 10783 10779 10773 10768 10762 10757 10749 10739 10727
10886 10884 10880 10876 10873 10870 10865 10860 10854 10850 10845 10840 10835 10831 10826 10823 10822 10824 10824 10825 10826 10826 10825 10824 10823 10821 10818 10814 10811 10807 10803 10800 10797 10793 10789 10785 10780 10775 10770 10766 10760 10753 10747 10738 10726
10883 10880 10877 10874 10871 10868 10863 10859 10853 10848 10843 10838 10833 10829 10825 10820 10817 10817 10818 10818 10820 10820 10820 10819 10818 10817 10814 10811 10807 10804 10800 10796 10793 10790 10786 10781 10776 10772 10767 10763 10757 10751 10744 10736 10726
10878 10875 10873 10870 10868 10864 10860 10857 10852 10848 10843 10837 10831 10827 10823 10819 10815 10812 10812 10812 10813 10814 10815 10814 10813 10811 10810 10807 10804 10800 10796 10794 10790 10786 10783 10779 10774 10769 10764 10760 10755 10749 10742 10733 10724
10873 10870 10869 10866 10862 10860 10857 10854 10850 10845 10840 10835 10831 10825 10820 10817 10813 10808 10806 10805 10805 10807 10808 10808 10808 10806 10804 10803 10800 10797 10793 10790 10786 10782 10780 10776 10771 10766 10761 10757 10752 10747 10740 10732 10722
10867 10864 10862 10859 10856 10853 10852 10850 10846 10841 10837 10833 10828 10824 10819 10812 10808 10805 10801 10798 10797 10798 10799 10801 10802 10800 10799 10797 10795 10793 10789 10786 10783 10780 10775 10773 10768 10763 10758 10754 10749 10744 10738 10731 10723
10860 10857 10856 10853 10850 10846 10844 10843 10841 10837 10833 10827 10823 10820 10816 10810 10804 10799 10796 10792 10790 10789 10790 10792 10793 10794 10792 10791 10789 10787 10785 10782 10778 10775 10771 10768 10765 10761 10755 10751 10746 10741 10736 10730 10723
10852 10849 10848 10845 10842 10838 10836 10834 10833 10831 10827 10821 10817 10814 10811 10806 10800 10794 10790 10787 10783 10780 10780 10781 10785 10786 10786 10785 10783 10782 10780 10777 10774 10772 10768 10764 10760 10757 10752 10747 10743 10739 10733 10728 10722
10840 10840 10838 10836 10834 10831 10827 10825 10823 10824 10819 10815 10810 10807 10804 10800 10794 10789 10784 10780 10776 10773 10771 10771 10774 10776 10778 10777 10777 10775 10773 10771 10769 10767 10765 10762 10757 10753 10749 10744 10739 10736 10731 10726 10721
10829 10828 10827 10826 10823 10822 10819 10816 10813 10812 10811 10806 10801 10798 10795 10791 10788 10782 10774 10771 10768 10765 10763 10763 10762 10764 10767 10769 10770 10769 10767 10765 10763 10762 10760 10757 10754 10750 10746 10742 10738 10733 10729 10724 10719
10817 10816 10814 10814 10812 10810 10810 10805 10804 10801 10800 10798 10793 10789 10785 10781 10778 10773 10766 10762 10759 10757 10754 10752 10752 10752 10755 10759 10760 10760 10760 10759 10757 10755 10754 10753 10750 10747 10744 10740 10735 10731 10726 10721 10717
10804 10803 10802 10803 10799 10799 10797 10793 10791 10791 10789 10786 10783 10779 10776 10770 10768 10764 10758 10752 10749 10746 10745 10743 10740 10740 10741 10746 10750 10751 10751 10749 10748 10748 10747 10746 10744 10744 10740 10737 10733 10728 10724 10719 10714
10789 10792 10789 10789 10785 10784 10784 10781 10779 10778 10777 10774 10772 10768 10765 10760 10757 10752 10747 10742 10737 10735 10734 10732 10729 10728 10729 10732 10737 10740 10739 10740 10739 10739 10739 10738 10737 10737 10735 10733 10730 10726 10721 10717 10712
10773 10776 10777 10776 10772 10771 10769 10767 10766 10764 10763 10760 10757 10755 10751 10749 10745 10741 10736 10731 10728 10723 10721 10720 10718 10716 10717 10718 10723 10731 10722 10729 10729 10729 10732 10730 10730 10731 10729 10728 10726 10723 10719 10714 10710